Lanai City, HI

10:14 PM HST on July 24, 2017 (GMT -1000)
Lanai City

Weather History for PHNY - November, 2013

Change the Weather History Date:

Friday, November 8, 2013

  Actual Average Record
Temperature  
Mean Temperature 76 °F -  
Max Temperature 83 °F 80 °F 84 °F (1993)
Min Temperature 68 °F 64 °F 59 °F (1949)
Cooling Degree Days 10    
Growing Degree Days 26 (Base 50)    
Moisture  
Dew Point 68 °F    
Average Humidity 84    
Maximum Humidity 100    
Minimum Humidity 59    
Precipitation  
Precipitation 0.05 in - - ()
Sea Level Pressure  
Sea Level Pressure 29.96 in    
Wind  
Wind Speed 6 mph (ENE)    
Max Wind Speed 13 mph    
Max Gust Speed -    
Visibility 10 miles    
Events Rain    
Averages and records for this station are not official NWS values.
T = Trace of Precipitation, MM = Missing Value Source: NWS Daily Summary

Daily Weather History Graph

Daily Weather History Graph

Search for Another Location

Airport or City:

Trip Planner

Search our weather history database for the weather conditions in past years. The results will help you decide how hot, cold, wet, or windy it might be!

Date:

Astronomy

Nov. 08, 2013 Rise Set
Actual Time 6:34 AM HST 5:48 PM HST
Civil Twilight 6:10 AM HST 6:11 PM HST
Nautical Twilight 5:44 AM HST 6:38 PM HST
Astronomical Twilight 5:18 AM HST 7:04 PM HST
Moon 11:39 AM HST (11/8) 11:18 PM HST (11/8)
Length of Visible Light 12h 00m
Length of Day
11h 14m
Waxing Crescent, 35% of the Moon is Illuminated
Nov 8
Waxing Crescent
Nov 9
First Quarter
Nov 17
Full
Nov 25
Last Quarter
Dec 2
New

Hourly Weather History & Observations

Time (HST) Temp. Heat Index Dew Point Humidity Pressure Visibility Wind Dir Wind Speed Gust Speed Precip Events Conditions
12:07 AM 71.6 °F - 69.8 °F 94% 30.04 in 10.0 mi Calm Calm - N/A   Mostly Cloudy
12:36 AM 71.6 °F - 69.8 °F 94% 30.03 in 10.0 mi Calm Calm - N/A   Scattered Clouds
12:56 AM 70.0 °F - 68.0 °F 93% 29.96 in 10.0 mi East 5.8 mph - N/A   Clear
1:34 AM 69.8 °F - 69.8 °F 100% 30.01 in 10.0 mi East 3.5 mph - N/A   Mostly Cloudy
1:56 AM 68.0 °F - 68.0 °F 100% 29.94 in 10.0 mi ENE 3.5 mph - N/A   Partly Cloudy
2:56 AM 70.0 °F - 70.0 °F 100% 29.94 in 10.0 mi SE 5.8 mph - N/A   Clear
3:56 AM 68.0 °F - 68.0 °F 100% 29.95 in 10.0 mi ENE 5.8 mph - N/A   Clear
4:56 AM 68.9 °F - 68.9 °F 100% 29.94 in 10.0 mi NNE 5.8 mph - N/A   Clear
5:56 AM 70.0 °F - 70.0 °F 100% 29.95 in 10.0 mi NNW 3.5 mph - N/A   Clear
6:56 AM 70.9 °F - 70.0 °F 97% 29.96 in 10.0 mi NE 10.4 mph - N/A   Clear
7:56 AM 73.9 °F - 70.0 °F 87% 29.98 in 10.0 mi SE 9.2 mph - N/A   Clear
8:42 AM 75.2 °F - 69.8 °F 83% 30.05 in 10.0 mi SE 6.9 mph - N/A   Mostly Cloudy
8:56 AM 75.9 °F - 68.9 °F 79% 29.99 in 10.0 mi SE 11.5 mph - N/A   Mostly Cloudy
9:05 AM 75.2 °F - 68.0 °F 78% 30.05 in 10.0 mi SE 10.4 mph - N/A   Scattered Clouds
9:56 AM 77.9 °F - 66.9 °F 69% 29.99 in 10.0 mi SSE 8.1 mph - N/A   Scattered Clouds
10:56 AM 79.9 °F - 66.9 °F 64% 29.96 in 10.0 mi SW 3.5 mph - N/A   Clear
11:56 AM 83.8 °F 87.0 °F 68.0 °F 59% 29.93 in 10.0 mi NW 9.2 mph - N/A   Mostly Cloudy
12:56 PM 79.9 °F - 68.0 °F 67% 29.91 in 9.0 mi WNW 6.9 mph - N/A   Overcast
1:56 PM 81.9 °F 84.2 °F 66.9 °F 60% 29.88 in 10.0 mi NNE 10.4 mph - N/A   Partly Cloudy
2:56 PM 81.0 °F 83.8 °F 68.0 °F 65% 29.86 in 10.0 mi NNE 10.4 mph - N/A   Clear
3:56 PM 79.9 °F - 68.0 °F 67% 29.87 in 10.0 mi ENE 11.5 mph - N/A   Partly Cloudy
4:29 PM 75.2 °F - 69.8 °F 83% 29.93 in 10.0 mi SSE 10.4 mph - N/A   Mostly Cloudy
4:56 PM 73.4 °F - 69.8 °F 88% 29.95 in 9.0 mi Calm Calm - N/A Rain Light Rain
5:56 PM 72.9 °F - 70.9 °F 93% 29.91 in 10.0 mi East 5.8 mph - 0.04 in   Overcast
6:41 PM 71.6 °F - 66.2 °F 83% 29.98 in 10.0 mi NE 8.1 mph - 0.00 in   Mostly Cloudy
6:56 PM 70.9 °F - 64.9 °F 81% 29.93 in 10.0 mi NE 9.2 mph - 0.00 in   Mostly Cloudy
7:56 PM 70.9 °F - 63.9 °F 78% 29.94 in 10.0 mi NE 12.7 mph - 0.01 in   Clear
8:56 PM 70.9 °F - 64.9 °F 81% 29.94 in 10.0 mi NE 11.5 mph - N/A   Clear
9:56 PM 70.9 °F - 66.9 °F 87% 29.93 in 10.0 mi NE 12.7 mph - N/A   Clear
10:56 PM 72.0 °F - 65.8 °F 81% 29.93 in 10.0 mi NE 6.9 mph - N/A   Mostly Cloudy
11:35 PM 71.6 °F - 66.2 °F 83% 29.99 in 10.0 mi NNE 6.9 mph - N/A   Scattered Clouds
11:44 PM 71.6 °F - 66.2 °F 83% 29.99 in 10.0 mi NE 6.9 mph - N/A   Mostly Cloudy
11:56 PM 70.9 °F - 68.0 °F 91% 29.91 in 10.0 mi NE 6.9 mph - N/A   Mostly Cloudy